Weather History for Pine River, MN

Change the Weather History Date:

Monday, January 28, 2013

  Actual Average Record
Temperature  
Mean Temperature 29 °F -  
Max Temperature 32 °F 21 °F 39 °F (2008)
Min Temperature 26 °F 3 °F -27 °F (2014)
Degree Days  
Heating Degree Days 36    
Moisture  
Dew Point 29 °F    
Average Humidity 99    
Maximum Humidity 100    
Minimum Humidity 93    
Precipitation  
Precipitation 0.11 in - - ()
Sea Level Pressure  
Sea Level Pressure 29.81 in    
Wind  
Wind Speed 3 mph (SE)    
Max Wind Speed 9 mph    
Max Gust Speed -    
Visibility 3 miles    
Events Fog , Snow    
Averages and records for this station are not official NWS values.
T = Trace of Precipitation, MM = Missing Value Source: NWS Daily Summary

Daily Weather History Graph

Daily Weather History Graph

Search for Another Location

Airport:

Trip Planner

Search our weather history database for the weather conditions in past years. The results will help you decide how hot, cold, wet, or windy it might be!

Date:

Astronomy

Jan. 28, 2013 Rise Set
Actual Time 7:46 AM CST 5:15 PM CST
Civil Twilight 7:13 AM CST 5:48 PM CST
Nautical Twilight 6:36 AM CST 6:24 PM CST
Astronomical Twilight 6:01 AM CST 7:00 PM CST
Moon 7:21 PM CST (1/28) 8:03 AM CST (1/28)
Length of Visible Light 10h 34m
Length of Day
9h 29m
Full, 98% of the Moon is Illuminated
Jan 28
Full
Feb 3
Last Quarter
Feb 10
New
Feb 17
First Quarter
Feb 25
Full

Hourly Weather History & Observations

Time (CST) Temp. Windchill Dew Point Humidity Pressure Visibility Wind Dir Wind Speed Gust Speed Precip Events Conditions
12:13 AM 28.4 °F 24.6 °F 26.6 °F 93% 29.82 in 7.0 mi SE 3.5 mph - N/A   Overcast
12:32 AM 28.4 °F 24.6 °F 26.6 °F 93% 29.81 in 7.0 mi ESE 3.5 mph - N/A   Mostly Cloudy
12:52 AM 28.4 °F 24.6 °F 26.6 °F 93% 29.82 in 7.0 mi SE 3.5 mph - N/A   Overcast
1:13 AM 26.6 °F - 26.6 °F 100% 29.82 in 7.0 mi Calm Calm - N/A   Overcast
1:53 AM 26.6 °F - 26.6 °F 100% 29.82 in 7.0 mi Calm Calm - N/A   Overcast
2:13 AM 26.6 °F - 26.6 °F 100% 29.83 in 5.0 mi Calm Calm - N/A   Overcast
2:53 AM 28.4 °F 24.6 °F 26.6 °F 93% 29.81 in 7.0 mi East 3.5 mph - N/A   Overcast
3:13 AM 28.4 °F - 26.6 °F 93% 29.83 in 7.0 mi Calm Calm - N/A   Overcast
3:33 AM 28.4 °F - 26.6 °F 93% 29.82 in 7.0 mi Calm Calm - N/A   Overcast
3:53 AM 28.4 °F - 26.6 °F 93% 29.83 in 7.0 mi Calm Calm - N/A   Overcast
4:13 AM 26.6 °F - 26.6 °F 100% 29.82 in 5.0 mi Calm Calm - N/A   Overcast
4:33 AM 28.4 °F 24.6 °F 26.6 °F 93% 29.82 in 5.0 mi ESE 3.5 mph - N/A   Overcast
4:53 AM 28.4 °F 22.2 °F 26.6 °F 93% 29.81 in 5.0 mi East 5.8 mph - N/A   Overcast
5:13 AM 28.4 °F 23.3 °F 26.6 °F 93% 29.82 in 5.0 mi SE 4.6 mph - N/A   Overcast
5:32 AM 28.4 °F 24.6 °F 26.6 °F 93% 29.83 in 5.0 mi SE 3.5 mph - N/A   Overcast
6:13 AM 26.6 °F 21.2 °F 26.6 °F 100% 29.81 in 5.0 mi ESE 4.6 mph - N/A   Overcast
6:33 AM 26.6 °F 22.6 °F 26.6 °F 100% 29.83 in 5.0 mi SSE 3.5 mph - N/A   Overcast
6:52 AM 26.6 °F 22.6 °F 26.6 °F 100% 29.83 in 3.0 mi SSE 3.5 mph - N/A   Overcast
7:13 AM 26.6 °F 22.6 °F 26.6 °F 100% 29.85 in 2.5 mi South 3.5 mph - N/A   Overcast
7:32 AM 26.6 °F - 26.6 °F 100% 29.86 in 2.5 mi Calm Calm - N/A   Overcast
7:53 AM 28.4 °F - 28.4 °F 100% 29.85 in 2.0 mi Calm Calm - N/A   Overcast
8:12 AM 26.6 °F 22.6 °F 26.6 °F 100% 29.84 in 1.2 mi SE 3.5 mph - N/A   Overcast
8:32 AM 28.4 °F 23.3 °F 28.4 °F 100% 29.84 in 1.2 mi SE 4.6 mph - N/A   Overcast
8:53 AM 28.4 °F 23.3 °F 28.4 °F 100% 29.84 in 1.0 mi SE 4.6 mph - N/A   Overcast
9:13 AM 28.4 °F 22.2 °F 28.4 °F 100% 29.83 in 1.0 mi SE 5.8 mph - N/A   Overcast
9:33 AM 28.4 °F 22.2 °F 28.4 °F 100% 29.84 in 1.2 mi SSE 5.8 mph - N/A   Overcast
9:52 AM 28.4 °F 22.2 °F 28.4 °F 100% 29.85 in 1.5 mi South 5.8 mph - N/A   Overcast
10:13 AM 28.4 °F 23.3 °F 28.4 °F 100% 29.85 in 1.2 mi South 4.6 mph - N/A   Overcast
10:32 AM 28.4 °F 22.2 °F 28.4 °F 100% 29.84 in 1.0 mi SE 5.8 mph - N/A   Overcast
10:52 AM 28.4 °F 23.3 °F 28.4 °F 100% 29.84 in 1.0 mi SSE 4.6 mph - N/A   Overcast
11:13 AM 28.4 °F 23.3 °F 28.4 °F 100% 29.84 in 1.0 mi SSE 4.6 mph - N/A   Overcast
11:33 AM 30.2 °F 24.3 °F 30.2 °F 100% 29.84 in 1.8 mi SSE 5.8 mph - N/A   Overcast
11:53 AM 30.2 °F 25.4 °F 30.2 °F 100% 29.84 in 1.8 mi SSE 4.6 mph - N/A   Overcast
12:12 PM 30.2 °F 23.4 °F 30.2 °F 100% 29.83 in 1.2 mi SSE 6.9 mph - N/A   Overcast
12:33 PM 30.2 °F 23.4 °F 30.2 °F 100% 29.83 in 1.5 mi SSE 6.9 mph - N/A   Overcast
12:53 PM 30.2 °F 23.4 °F 30.2 °F 100% 29.84 in 1.8 mi South 6.9 mph - N/A   Overcast
1:12 PM 30.2 °F 21.9 °F 30.2 °F 100% 29.84 in 1.8 mi South 9.2 mph - N/A   Overcast
1:32 PM 30.2 °F 24.3 °F 30.2 °F 100% 29.82 in 2.0 mi South 5.8 mph - N/A   Overcast
1:53 PM 30.2 °F 25.4 °F 30.2 °F 100% 29.81 in 1.8 mi South 4.6 mph - N/A   Overcast
2:13 PM 30.2 °F 25.4 °F 30.2 °F 100% 29.81 in 1.8 mi SSE 4.6 mph - N/A   Overcast
2:33 PM 30.2 °F 25.4 °F 30.2 °F 100% 29.81 in 1.8 mi SSE 4.6 mph - N/A   Overcast
2:52 PM 32.0 °F 27.5 °F 32.0 °F 100% 29.81 in 1.2 mi SSE 4.6 mph - N/A   Overcast
3:12 PM 32.0 °F 26.4 °F 32.0 °F 100% 29.80 in 1.5 mi SSE 5.8 mph - N/A   Overcast
3:33 PM 32.0 °F 26.4 °F 32.0 °F 100% 29.82 in 2.0 mi SSE 5.8 mph - N/A   Overcast
3:52 PM 32.0 °F 25.6 °F 32.0 °F 100% 29.81 in 2.0 mi SSE 6.9 mph - N/A   Overcast
4:13 PM 32.0 °F 25.6 °F 32.0 °F 100% 29.80 in 1.5 mi SE 6.9 mph - N/A   Overcast
4:33 PM 32.0 °F 27.5 °F 32.0 °F 100% 29.80 in 0.8 mi SSE 4.6 mph - N/A   Overcast
4:53 PM 32.0 °F 27.5 °F 32.0 °F 100% 29.79 in 0.8 mi SE 4.6 mph - N/A   Overcast
5:13 PM 32.0 °F 27.5 °F 32.0 °F 100% 29.79 in 0.8 mi SSE 4.6 mph - N/A   Overcast
5:33 PM 32.0 °F 27.5 °F 32.0 °F 100% 29.81 in 1.0 mi South 4.6 mph - N/A   Overcast
5:53 PM 32.0 °F 27.5 °F 32.0 °F 100% 29.81 in 0.8 mi South 4.6 mph - N/A   Overcast
6:13 PM 32.0 °F 26.4 °F 32.0 °F 100% 29.80 in 0.5 mi South 5.8 mph - N/A Fog Fog
6:33 PM 32.0 °F 26.4 °F 32.0 °F 100% 29.79 in 0.8 mi SSE 5.8 mph - N/A   Overcast
6:53 PM 32.0 °F 28.7 °F 32.0 °F 100% 29.79 in 0.8 mi SSE 3.5 mph - N/A Snow Light Snow
7:13 PM 32.0 °F - - N/A% 29.79 in 0.8 mi Calm Calm - N/A   Overcast
7:33 PM 32.0 °F 27.5 °F - N/A% 29.79 in 0.8 mi SSE 4.6 mph - N/A Snow Light Snow
7:53 PM 32.0 °F 28.7 °F - N/A% 29.78 in 0.8 mi ESE 3.5 mph - N/A Snow Light Snow
8:13 PM 32.0 °F 27.5 °F - N/A% 29.77 in 2.0 mi East 4.6 mph - 0.01 in   Overcast
8:32 PM 30.2 °F 25.4 °F - N/A% 29.76 in 3.0 mi East 4.6 mph - 0.02 in   Overcast
8:53 PM 30.2 °F 25.4 °F - N/A% 29.76 in 2.5 mi ESE 4.6 mph - 0.01 in Snow Light Snow
9:13 PM 30.2 °F 25.4 °F - N/A% 29.76 in 2.0 mi ESE 4.6 mph - 0.02 in Snow Light Snow
9:32 PM 30.2 °F 24.3 °F - N/A% 29.74 in 1.8 mi East 5.8 mph - 0.02 in Snow Light Snow
9:53 PM 30.2 °F 25.4 °F - N/A% 29.73 in 2.5 mi ESE 4.6 mph - N/A Snow Light Snow
10:12 PM 30.2 °F 25.4 °F - N/A% 29.72 in 4.0 mi ESE 4.6 mph - 0.03 in   Overcast
10:33 PM 30.2 °F - - N/A% 29.72 in 1.8 mi Calm Calm - 0.04 in Snow Light Snow
10:53 PM 30.2 °F - - N/A% 29.71 in 3.0 mi Calm Calm - N/A Snow Light Snow
11:12 PM 30.2 °F - - N/A% 29.70 in 5.0 mi Calm Calm - 0.02 in Snow Light Snow
11:32 PM 30.2 °F - - N/A% 29.69 in 5.0 mi Calm Calm - 0.03 in Snow Light Snow
11:53 PM 30.2 °F 26.7 °F - N/A% 29.69 in 1.2 mi SE 3.5 mph - 0.01 in   Overcast